Showing default

KAISTSAT 4, 27945

Orbit data source: Space-Track

KAISTSAT 4, 27945 is a South Korean payload satellite in SSO that was launched on Sat, 27 Sep 2003 UTC via a KOSMOS 11K65M launch vehicle from the Plesetsk Missile And Space Complex (PKMTR). Payload-class satellites include a variety of spacecraft equipped with specific instruments for various scientific and technological missions. These include communications satellites like Starlink; space stations such as the ISS; scientific satellites like the Hubble; Earth observation satellites from companies like Planet Labs, Umbra, and HawkEye 360; GPS; miniature CubeSats for education and research; and military/defense satellites.

Loading next visibility...
Identifier
27945, 2003-042G
Orbit
SSO
Country
Flag of UnknownUnknown / SKOR
Related business
Manufacturer
SatRec Initiative
Mission
Non-operational Civil Ast/Sci
Bus & Motor
SI-200, Unknown motor
Mass
106 kg wet, 106 kg dry
Launch date (UTC)
2003-09-27 (22 years ago)
Launch vehicle
KOSMOS 11K65M
Launch site
Plesetsk Missile And Space Complex (PKMTR)
Object type
Payload
Rocket body
Debris
Shape & HBR
Box, 0.5 m
Radar Cross Section
0.945 m², Medium (>0.1 m² and < 1m²)

Expand to show TLE details & history
Last TLE update: 11 hours ago

TLE from 11 hours ago
0 KAISTSAT 4
1 27945U 03042G   25353.68721954  .00000357  00000-0  71825-4 0  9998
2 27945  98.3627 153.4127 0011525 175.8446 184.2855 14.67675087187703
Epoch: 2025-12-19T16:29Z
TLE epoch observation values (Epoch: 2025-12-19T16:29:35.768Z)
Latitude
-0.00006°
Longitude
177.48888°
Altitude
679.591 km
Speed
7.513 km/s
True Right ascension
10h 13m 39s
True Declination
0° 00' 00"
Sunlit
Object was in daylight at epoch
Visualization orbit readout
Latitude
Unknown
Longitude
Unknown
Altitude
Unknown
Speed
Unknown
Apparent Right ascension
Unknown
Apparent Declination
Unknown
Sunlit
N/A
Visualization observer readout
Local Sidereal Time
02:12:07
Azimuth
Unknown
Elevation
Unknown
Doppler factor
Unknown
Orbital elements
Apogee altitude
673.696 km
Perigee altitude
657.461 km
Semi-major axis
7,043.715 km
Eccentricity
0.00115
Inclination
98.3627°
RAAN
153.4127°
Arg. of periapsis
175.8446°
True anomaly
184.27565°
Mean anomaly
184.2855°
Eccentric anomaly
184.28057°
Mean motion
3.67147 °/min
Orbital period
98.05 mins
BSTAR
0.000071825
Loading maneuver chart data...
Computing Atmospheric mass density...
Loading historical data...
Loading historical data...
Loading historical data...
Loading historical data...
Loading historical data...
Loading historical data...
Loading historical data...

Documentation

Showing up to 5 results
|